TimeEST,TemperatureF,Dew PointF,Humidity,Sea Level PressureIn,VisibilityMPH,Wind Direction,Wind SpeedMPH,Gust SpeedMPH,PrecipitationIn,Events,Conditions,WindDirDegrees,DateUTC
12:04 AM,17.6,15.8,93,30.28,1.8,Calm,Calm,-,N/A,,Clear,0,2014-02-04 05:04:00
12:21 AM,19.4,17.6,93,30.28,2.5,Calm,Calm,-,N/A,,Clear,0,2014-02-04 05:21:00
12:28 AM,15.8,15.8,100,30.28,1.2,Calm,Calm,-,N/A,,Partly Cloudy,0,2014-02-04 05:28:00
12:30 AM,14.0,14.0,100,30.28,0.8,Calm,Calm,-,N/A,,Mist,0,2014-02-04 05:30:00
12:42 AM,14.0,14.0,100,30.28,0.2,Calm,Calm,-,N/A,Fog,Light Freezing Fog,0,2014-02-04 05:42:00
12:56 AM,16.0,15.1,96,30.33,0.8,Calm,Calm,-,N/A,,Mist,0,2014-02-04 05:56:00
1:07 AM,15.8,14.0,93,30.28,0.5,Calm,Calm,-,N/A,Fog,Light Freezing Fog,0,2014-02-04 06:07:00
1:24 AM,12.2,12.2,100,30.28,2.0,Calm,Calm,-,N/A,,Clear,0,2014-02-04 06:24:00
1:39 AM,14.0,14.0,100,30.29,3.0,Calm,Calm,-,N/A,,Clear,0,2014-02-04 06:39:00
1:42 AM,12.2,12.2,100,30.29,1.5,Calm,Calm,-,N/A,,Clear,0,2014-02-04 06:42:00
1:52 AM,15.8,14.0,93,30.29,4.0,Calm,Calm,-,N/A,,Clear,0,2014-02-04 06:52:00
1:56 AM,14.0,12.9,95,30.35,5.0,Calm,Calm,-,N/A,,Clear,0,2014-02-04 06:56:00
2:04 AM,12.2,12.2,100,30.30,1.5,Calm,Calm,-,N/A,,Clear,0,2014-02-04 07:04:00
2:17 AM,12.2,12.2,100,30.31,3.0,Calm,Calm,-,N/A,,Clear,0,2014-02-04 07:17:00
2:56 AM,12.9,12.0,96,30.38,6.0,Calm,Calm,-,N/A,,Clear,0,2014-02-04 07:56:00
3:56 AM,12.0,10.9,95,30.38,7.0,Calm,Calm,-,N/A,,Clear,0,2014-02-04 08:56:00
4:56 AM,10.0,9.0,95,30.40,7.0,Calm,Calm,-,N/A,,Clear,0,2014-02-04 09:56:00
5:56 AM,10.0,9.0,95,30.42,7.0,Calm,Calm,-,N/A,,Clear,0,2014-02-04 10:56:00
6:56 AM,10.0,9.0,95,30.45,10.0,Calm,Calm,-,N/A,,Clear,0,2014-02-04 11:56:00
7:56 AM,14.0,14.0,100,30.47,10.0,Calm,Calm,-,N/A,,Mostly Cloudy,0,2014-02-04 12:56:00
8:56 AM,19.0,19.0,100,30.49,7.0,Calm,Calm,-,N/A,,Clear,0,2014-02-04 13:56:00
9:56 AM,25.0,19.0,78,30.50,10.0,NNW,5.8,-,N/A,,Clear,340,2014-02-04 14:56:00
10:56 AM,28.9,16.0,58,30.50,10.0,NNW,8.1,-,N/A,,Scattered Clouds,330,2014-02-04 15:56:00
11:56 AM,30.0,17.1,59,30.46,10.0,Calm,Calm,-,N/A,,Clear,0,2014-02-04 16:56:00
12:56 PM,32.0,18.0,56,30.43,10.0,Variable,5.8,-,N/A,,Clear,0,2014-02-04 17:56:00
1:56 PM,32.0,19.0,59,30.43,10.0,Variable,3.5,-,N/A,,Clear,0,2014-02-04 18:56:00
2:56 PM,32.0,19.9,61,30.42,10.0,Variable,4.6,-,N/A,,Clear,0,2014-02-04 19:56:00
3:56 PM,32.0,19.9,61,30.39,10.0,South,4.6,-,N/A,,Mostly Cloudy,190,2014-02-04 20:56:00
4:56 PM,30.9,19.9,64,30.39,10.0,Calm,Calm,-,N/A,,Mostly Cloudy,0,2014-02-04 21:56:00
5:56 PM,28.9,21.9,75,30.43,10.0,Calm,Calm,-,N/A,,Mostly Cloudy,0,2014-02-04 22:56:00
6:56 PM,28.0,21.9,78,30.44,10.0,Calm,Calm,-,N/A,,Clear,0,2014-02-04 23:56:00
7:56 PM,27.0,23.0,85,30.42,10.0,Calm,Calm,-,N/A,,Clear,0,2014-02-05 00:56:00
8:56 PM,26.1,23.0,88,30.43,10.0,Calm,Calm,-,N/A,,Clear,0,2014-02-05 01:56:00
9:56 PM,26.1,24.1,92,30.43,10.0,Calm,Calm,-,N/A,,Scattered Clouds,0,2014-02-05 02:56:00
10:56 PM,26.1,24.1,92,30.42,10.0,Calm,Calm,-,N/A,,Overcast,0,2014-02-05 03:56:00
11:56 PM,27.0,25.0,92,30.35,9.0,ESE,3.5,-,N/A,,Overcast,110,2014-02-05 04:56:00